{"data":{"norad_id":57245,"epoch":"2026-05-25T04:09:44.479872Z","epoch_age_seconds":60341,"freshness":"FRESH","line1":"1 57245U 23094AD  26145.17343148 -.00000011  00000+0  91351-5 0  9996","line2":"2 57245  43.0046 308.2515 0001623 284.9983  75.0689 15.27574186158938","mean_motion":15.27574186,"eccentricity":0.0001623,"inclination_deg":43.0046,"raan_deg":308.2515,"arg_perigee_deg":284.9983,"mean_anomaly_deg":75.0689,"bstar":9.1351e-6,"rev_number":15893,"period_min":94.267107496146,"perigee_km":481.95293197353,"apogee_km":484.18007863136,"semimajor_km":6861.2035053024,"source":"CELESTRAK","updated_at":"2026-05-25T13:38:18.257699Z"}}